Time,TemperatureF,DewpointF,PressureIn,WindDirection,WindDirectionDegrees,WindSpeedMPH,WindSpeedGustMPH,Humidity,HourlyPrecipIn,Conditions,Clouds,dailyrainin,SoftwareType,DateUTC
2013-01-01 00:00:00,29.5,21.0,30.03,ENE,68,0.2,0.4,70,0.00,,,0.00,WUHU216HW,2013-01-01 05:00:00,
2013-01-01 00:01:00,29.5,21.0,30.04,SE,135,0.0,0.4,70,0.00,,,0.00,WUHU216HW,2013-01-01 05:01:00,
2013-01-01 00:06:00,29.7,21.2,30.03,South,180,0.0,0.4,70,0.00,,,0.00,WUHU216HW,2013-01-01 05:06:00,
2013-01-01 00:11:00,29.7,20.8,30.03,South,180,0.0,0.4,69,0.00,,,0.00,WUHU216HW,2013-01-01 05:11:00,
2013-01-01 00:16:00,29.5,21.0,30.04,South,180,0.0,0.0,70,0.00,,,0.00,WUHU216HW,2013-01-01 05:16:00,
2013-01-01 00:21:00,29.2,20.6,30.04,East,90,0.4,0.9,70,0.00,,,0.00,WUHU216HW,2013-01-01 05:21:00,
2013-01-01 00:26:00,29.0,20.4,30.04,East,90,0.0,0.9,70,0.00,,,0.00,WUHU216HW,2013-01-01 05:26:00,
2013-01-01 00:31:00,29.0,20.8,30.04,SSE,158,0.0,0.4,71,0.00,,,0.00,WUHU216HW,2013-01-01 05:31:00,
2013-01-01 00:36:00,29.0,20.4,30.04,WNW,293,0.2,0.4,70,0.00,,,0.00,WUHU216HW,2013-01-01 05:36:00,
2013-01-01 00:41:00,29.0,20.8,30.04,North,0,0.0,0.2,71,0.00,,,0.00,WUHU216HW,2013-01-01 05:41:00,
2013-01-01 00:46:00,28.8,20.9,30.04,West,270,0.0,0.4,72,0.00,,,0.00,WUHU216HW,2013-01-01 05:46:00,
2013-01-01 00:51:00,28.4,20.6,30.04,West,270,0.0,0.4,72,0.00,,,0.00,WUHU216HW,2013-01-01 05:51:00,
2013-01-01 00:56:00,28.4,20.6,30.04,East,90,0.4,0.4,72,0.00,,,0.00,WUHU216HW,2013-01-01 05:56:00,
2013-01-01 01:01:00,28.4,20.6,30.03,North,0,0.2,0.4,72,0.00,,,0.00,WUHU216HW,2013-01-01 06:01:00,
2013-01-01 01:06:00,29.2,21.2,30.03,West,270,0.0,0.9,72,0.00,,,0.00,WUHU216HW,2013-01-01 06:06:00,
2013-01-01 01:11:00,29.2,21.2,30.02,East,90,0.2,1.1,72,0.00,,,0.00,WUHU216HW,2013-01-01 06:11:00,
2013-01-01 01:16:00,29.3,21.4,30.03,NNW,338,0.0,1.1,72,0.00,,,0.00,WUHU216HW,2013-01-01 06:16:00,
2013-01-01 01:21:00,29.2,21.2,30.03,South,180,0.4,0.7,72,0.00,,,0.00,WUHU216HW,2013-01-01 06:21:00,
2013-01-01 01:26:00,29.2,21.2,30.03,SSW,203,0.0,0.7,72,0.00,,,0.00,WUHU216HW,2013-01-01 06:26:00,
2013-01-01 01:31:00,29.3,21.8,30.03,SSW,203,0.0,0.4,73,0.00,,,0.00,WUHU216HW,2013-01-01 06:31:00,
2013-01-01 01:36:00,29.5,21.9,30.04,WNW,293,0.0,0.9,73,0.00,,,0.00,WUHU216HW,2013-01-01 06:36:00,
2013-01-01 01:41:00,29.3,22.1,30.02,NE,45,0.2,1.1,74,0.00,,,0.00,WUHU216HW,2013-01-01 06:41:00,
2013-01-01 01:46:00,29.3,22.4,30.03,ESE,113,0.0,1.1,75,0.00,,,0.00,WUHU216HW,2013-01-01 06:46:00,
2013-01-01 01:51:00,29.2,21.9,30.04,SSW,203,0.4,0.4,74,0.00,,,0.00,WUHU216HW,2013-01-01 06:51:00,
2013-01-01 01:56:00,29.2,21.9,30.04,NNE,23,0.0,0.7,74,0.00,,,0.00,WUHU216HW,2013-01-01 06:56:00,
2013-01-01 02:01:00,29.0,21.7,30.04,SE,135,0.4,1.1,74,0.00,,,0.00,WUHU216HW,2013-01-01 07:01:00,
2013-01-01 02:06:00,28.8,21.5,30.03,ENE,68,0.0,1.1,74,0.00,,,0.00,WUHU216HW,2013-01-01 07:06:00,
2013-01-01 02:11:00,28.4,21.3,30.04,ENE,68,0.7,0.7,74,0.00,,,0.00,WUHU216HW,2013-01-01 07:11:00,
2013-01-01 02:16:00,28.3,21.1,30.04,NE,45,0.2,0.7,74,0.00,,,0.00,WUHU216HW,2013-01-01 07:16:00,
2013-01-01 02:21:00,28.4,21.3,30.04,SE,135,0.7,1.8,74,0.00,,,0.00,WUHU216HW,2013-01-01 07:21:00,
2013-01-01 02:26:00,28.8,21.3,30.04,ESE,113,1.1,2.2,73,0.00,,,0.00,WUHU216HW,2013-01-01 07:26:00,
2013-01-01 02:31:00,29.3,21.4,30.04,West,270,2.0,2.2,72,0.00,,,0.00,WUHU216HW,2013-01-01 07:31:00,
2013-01-01 02:36:00,29.2,21.9,30.03,ESE,113,0.4,2.5,74,0.00,,,0.00,WUHU216HW,2013-01-01 07:36:00,
2013-01-01 02:41:00,29.0,21.7,30.04,ENE,68,0.0,2.5,74,0.00,,,0.00,WUHU216HW,2013-01-01 07:41:00,
2013-01-01 02:46:00,29.0,21.7,30.03,NE,45,0.0,0.9,74,0.00,,,0.00,WUHU216HW,2013-01-01 07:46:00,
2013-01-01 02:51:00,28.8,21.3,30.02,North,0,0.0,0.9,73,0.00,,,0.00,WUHU216HW,2013-01-01 07:51:00,
2013-01-01 02:56:00,29.2,21.2,30.03,WNW,293,0.4,0.4,72,0.00,,,0.00,WUHU216HW,2013-01-01 07:56:00,
2013-01-01 03:01:00,29.0,21.1,30.04,West,270,0.0,0.4,72,0.00,,,0.00,WUHU216HW,2013-01-01 08:01:00,
2013-01-01 03:06:00,28.6,20.8,30.03,East,90,0.2,0.4,72,0.00,,,0.00,WUHU216HW,2013-01-01 08:06:00,
2013-01-01 03:11:00,28.4,20.9,30.03,North,0,0.0,1.1,73,0.00,,,0.00,WUHU216HW,2013-01-01 08:11:00,
2013-01-01 03:16:00,28.4,20.9,30.03,West,270,0.0,1.1,73,0.00,,,0.00,WUHU216HW,2013-01-01 08:16:00,
2013-01-01 03:21:00,28.6,21.1,30.03,SW,225,0.4,1.1,73,0.00,,,0.00,WUHU216HW,2013-01-01 08:21:00,
2013-01-01 03:26:00,28.8,21.3,30.03,SW,225,0.0,1.1,73,0.00,,,0.00,WUHU216HW,2013-01-01 08:26:00,
2013-01-01 03:31:00,28.8,21.3,30.03,NNE,23,0.2,1.1,73,0.00,,,0.00,WUHU216HW,2013-01-01 08:31:00,
2013-01-01 03:36:00,28.6,21.1,30.02,ENE,68,0.2,0.9,73,0.00,,,0.00,WUHU216HW,2013-01-01 08:36:00,
2013-01-01 03:41:00,29.3,22.1,30.03,SSW,203,1.8,1.8,74,0.00,,,0.00,WUHU216HW,2013-01-01 08:41:00,
2013-01-01 03:46:00,30.6,22.0,30.03,South,180,2.0,3.4,70,0.00,,,0.00,WUHU216HW,2013-01-01 08:46:00,
2013-01-01 03:51:00,32.0,22.3,30.03,ESE,113,1.8,3.4,67,0.00,,,0.00,WUHU216HW,2013-01-01 08:51:00,
2013-01-01 03:56:00,32.2,22.5,30.02,SE,135,0.0,2.9,67,0.00,,,0.00,WUHU216HW,2013-01-01 08:56:00,
2013-01-01 04:01:00,31.7,22.3,30.03,West,270,0.7,1.8,68,0.00,,,0.00,WUHU216HW,2013-01-01 09:01:00,
2013-01-01 04:06:00,31.5,22.1,30.02,WNW,293,0.0,1.1,68,0.00,,,0.00,WUHU216HW,2013-01-01 09:06:00,
2013-01-01 04:11:00,31.3,22.0,30.02,SW,225,0.0,1.1,68,0.00,,,0.00,WUHU216HW,2013-01-01 09:11:00,
2013-01-01 04:16:00,31.1,21.8,30.02,SSW,203,0.2,0.2,68,0.00,,,0.00,WUHU216HW,2013-01-01 09:16:00,
2013-01-01 04:21:00,31.0,22.0,30.02,WSW,248,1.1,1.3,69,0.00,,,0.00,WUHU216HW,2013-01-01 09:21:00,
2013-01-01 04:26:00,30.8,22.5,30.02,West,270,0.4,1.3,71,0.00,,,0.00,WUHU216HW,2013-01-01 09:26:00,
2013-01-01 04:31:00,30.6,22.3,30.02,SW,225,0.0,0.9,71,0.00,,,0.00,WUHU216HW,2013-01-01 09:31:00,
2013-01-01 04:36:00,30.6,23.2,30.02,ESE,113,0.0,0.4,74,0.00,,,0.00,WUHU216HW,2013-01-01 09:36:00,
2013-01-01 04:41:00,30.6,23.2,30.02,ESE,113,0.0,0.4,74,0.00,,,0.00,WUHU216HW,2013-01-01 09:41:00,
2013-01-01 04:46:00,30.8,23.1,30.02,West,270,0.4,0.4,73,0.00,,,0.00,WUHU216HW,2013-01-01 09:46:00,
2013-01-01 04:51:00,31.0,23.3,30.02,West,270,1.1,1.1,73,0.00,,,0.00,WUHU216HW,2013-01-01 09:51:00,
2013-01-01 04:56:00,31.5,23.9,30.02,West,270,1.1,1.3,73,0.00,,,0.00,WUHU216HW,2013-01-01 09:56:00,
2013-01-01 05:01:00,31.7,24.0,30.02,West,270,1.1,1.3,73,0.00,,,0.00,WUHU216HW,2013-01-01 10:01:00,
2013-01-01 05:06:00,32.6,24.2,30.02,WNW,293,1.6,1.8,71,0.00,,,0.00,WUHU216HW,2013-01-01 10:06:00,
2013-01-01 05:11:00,32.8,24.4,30.03,West,270,1.6,2.5,71,0.00,,,0.00,WUHU216HW,2013-01-01 10:11:00,
2013-01-01 05:16:00,33.3,24.6,30.02,West,270,0.7,2.5,70,0.00,,,0.00,WUHU216HW,2013-01-01 10:16:00,
2013-01-01 05:21:00,33.3,24.2,30.01,WSW,248,0.4,1.6,69,0.00,,,0.00,WUHU216HW,2013-01-01 10:21:00,
2013-01-01 05:26:00,33.7,24.8,30.00,WNW,293,0.0,0.9,70,0.00,,,0.00,WUHU216HW,2013-01-01 10:26:00,
2013-01-01 05:31:00,33.5,24.3,30.01,West,270,0.4,1.1,69,0.00,,,0.00,WUHU216HW,2013-01-01 10:31:00,
2013-01-01 05:36:00,33.1,24.4,30.01,West,270,0.7,1.1,70,0.00,,,0.00,WUHU216HW,2013-01-01 10:36:00,
2013-01-01 05:41:00,33.7,24.5,30.01,West,270,1.3,1.3,69,0.00,,,0.00,WUHU216HW,2013-01-01 10:41:00,
2013-01-01 05:46:00,34.0,24.5,30.01,West,270,2.9,2.9,68,0.00,,,0.00,WUHU216HW,2013-01-01 10:46:00,
2013-01-01 05:51:00,35.8,25.2,30.01,West,270,1.8,3.4,65,0.00,,,0.00,WUHU216HW,2013-01-01 10:51:00,
2013-01-01 05:56:00,36.7,24.9,30.01,West,270,3.1,4.3,62,0.00,,,0.00,WUHU216HW,2013-01-01 10:56:00,
2013-01-01 06:01:00,36.7,25.3,30.02,West,270,2.9,4.3,63,0.00,,,0.00,WUHU216HW,2013-01-01 11:01:00,
2013-01-01 06:06:00,37.4,25.6,30.02,West,270,2.5,3.6,62,0.00,,,0.00,WUHU216HW,2013-01-01 11:06:00,
2013-01-01 06:11:00,37.4,25.6,30.02,West,270,1.8,3.6,62,0.00,,,0.00,WUHU216HW,2013-01-01 11:11:00,
2013-01-01 06:17:00,37.6,25.7,30.01,WNW,293,0.0,3.1,62,0.00,,,0.00,WUHU216HW,2013-01-01 11:17:00,
2013-01-01 06:22:00,37.6,25.7,30.02,West,270,2.7,2.9,62,0.00,,,0.00,WUHU216HW,2013-01-01 11:22:00,
2013-01-01 06:27:00,37.6,25.7,30.02,West,270,0.0,2.7,62,0.00,,,0.00,WUHU216HW,2013-01-01 11:27:00,
2013-01-01 06:32:00,38.0,26.5,30.01,West,270,1.3,3.1,63,0.00,,,0.00,WUHU216HW,2013-01-01 11:32:00,
2013-01-01 06:37:00,36.9,25.5,30.01,WNW,293,0.2,3.1,63,0.00,,,0.00,WUHU216HW,2013-01-01 11:37:00,
2013-01-01 06:42:00,36.4,25.4,30.02,WNW,293,0.4,1.1,64,0.00,,,0.00,WUHU216HW,2013-01-01 11:42:00,
2013-01-01 06:47:00,35.6,25.0,30.01,West,270,0.0,1.1,65,0.00,,,0.00,WUHU216HW,2013-01-01 11:47:00,
2013-01-01 06:52:00,35.1,24.8,30.01,West,270,0.0,0.9,66,0.00,,,0.00,WUHU216HW,2013-01-01 11:52:00,
2013-01-01 06:57:00,34.7,24.5,30.01,SSW,203,0.4,0.9,66,0.00,,,0.00,WUHU216HW,2013-01-01 11:57:00,
2013-01-01 07:02:00,34.4,25.2,30.02,WSW,248,0.0,0.9,69,0.00,,,0.00,WUHU216HW,2013-01-01 12:02:00,
2013-01-01 07:07:00,34.2,25.0,30.02,West,270,0.9,0.9,69,0.00,,,0.00,WUHU216HW,2013-01-01 12:07:00,
2013-01-01 07:12:00,33.7,24.5,30.01,ESE,113,0.2,0.9,69,0.00,,,0.00,WUHU216HW,2013-01-01 12:12:00,
2013-01-01 07:17:00,33.5,24.7,30.02,WNW,293,0.2,0.9,70,0.00,,,0.00,WUHU216HW,2013-01-01 12:17:00,
2013-01-01 07:22:00,34.6,26.1,30.02,SW,225,0.9,1.8,71,0.00,,,0.00,WUHU216HW,2013-01-01 12:22:00,
2013-01-01 07:27:00,35.3,26.8,30.01,West,270,0.0,2.0,71,0.00,,,0.00,WUHU216HW,2013-01-01 12:27:00,
2013-01-01 07:32:00,35.1,26.7,30.02,WNW,293,0.2,2.0,71,0.00,,,0.00,WUHU216HW,2013-01-01 12:32:00,
2013-01-01 07:37:00,34.7,26.3,30.01,NW,315,0.9,0.9,71,0.00,,,0.00,WUHU216HW,2013-01-01 12:37:00,
2013-01-01 07:42:00,34.7,26.6,30.01,NNE,23,0.4,0.9,72,0.00,,,0.00,WUHU216HW,2013-01-01 12:42:00,
2013-01-01 07:47:00,34.6,26.1,30.01,NW,315,0.0,0.9,71,0.00,,,0.00,WUHU216HW,2013-01-01 12:47:00,
2013-01-01 07:52:00,34.6,26.1,30.02,NNW,338,0.0,0.4,71,0.00,,,0.00,WUHU216HW,2013-01-01 12:52:00,
2013-01-01 07:57:00,34.6,26.1,30.02,NNW,338,0.0,0.0,71,0.00,,,0.00,WUHU216HW,2013-01-01 12:57:00,
2013-01-01 08:02:00,34.4,25.9,30.01,North,0,0.0,0.0,71,0.00,,,0.00,WUHU216HW,2013-01-01 13:02:00,
2013-01-01 08:07:00,34.6,26.1,30.02,WNW,293,0.2,0.2,71,0.00,,,0.00,WUHU216HW,2013-01-01 13:07:00,
2013-01-01 08:12:00,34.6,26.4,30.02,North,0,0.2,0.2,72,0.00,,,0.00,WUHU216HW,2013-01-01 13:12:00,
2013-01-01 08:17:00,34.6,26.4,30.01,West,270,0.4,0.4,72,0.00,,,0.00,WUHU216HW,2013-01-01 13:17:00,
2013-01-01 08:22:00,34.7,26.6,30.02,WNW,293,0.0,0.4,72,0.00,,,0.00,WUHU216HW,2013-01-01 13:22:00,
2013-01-01 08:27:00,34.9,27.1,30.01,NE,45,0.0,0.7,73,0.00,,,0.00,WUHU216HW,2013-01-01 13:27:00,
2013-01-01 08:32:00,35.3,27.1,30.01,NE,45,0.0,0.7,72,0.00,,,0.00,WUHU216HW,2013-01-01 13:32:00,
2013-01-01 08:37:00,35.8,27.4,30.01,SW,225,0.0,0.4,71,0.00,,,0.00,WUHU216HW,2013-01-01 13:37:00,
2013-01-01 08:42:00,36.0,27.6,30.02,SW,225,0.4,0.4,71,0.00,,,0.00,WUHU216HW,2013-01-01 13:42:00,
2013-01-01 08:47:00,36.2,27.7,30.02,WNW,293,0.0,0.4,71,0.00,,,0.00,WUHU216HW,2013-01-01 13:47:00,
2013-01-01 08:52:00,36.4,27.9,30.03,WNW,293,1.1,1.1,71,0.00,,,0.00,WUHU216HW,2013-01-01 13:52:00,
2013-01-01 08:57:00,37.6,28.0,30.02,NNE,23,0.9,1.6,68,0.00,,,0.00,WUHU216HW,2013-01-01 13:57:00,
2013-01-01 09:02:00,38.5,27.7,30.02,NE,45,1.3,2.5,65,0.00,,,0.00,WUHU216HW,2013-01-01 14:02:00,
2013-01-01 09:07:00,39.1,27.8,30.02,ENE,68,2.5,2.5,64,0.00,,,0.00,WUHU216HW,2013-01-01 14:07:00,
2013-01-01 09:12:00,39.1,27.5,30.02,NNW,338,1.1,2.5,63,0.00,,,0.00,WUHU216HW,2013-01-01 14:12:00,
2013-01-01 09:17:00,39.1,27.5,30.03,NNW,338,2.5,2.5,63,0.00,,,0.00,WUHU216HW,2013-01-01 14:17:00,
2013-01-01 09:22:00,38.9,27.3,30.03,North,0,0.7,2.5,63,0.00,,,0.00,WUHU216HW,2013-01-01 14:22:00,
2013-01-01 09:27:00,39.1,27.5,30.03,ENE,68,0.9,2.5,63,0.00,,,0.00,WUHU216HW,2013-01-01 14:27:00,
2013-01-01 09:32:00,39.1,27.8,30.03,East,90,0.0,1.8,64,0.00,,,0.00,WUHU216HW,2013-01-01 14:32:00,
2013-01-01 09:37:00,39.1,27.8,30.03,NNE,23,0.9,1.1,64,0.00,,,0.00,WUHU216HW,2013-01-01 14:37:00,
2013-01-01 09:42:00,38.9,27.6,30.02,NNE,23,0.2,1.1,64,0.00,,,0.00,WUHU216HW,2013-01-01 14:42:00,
2013-01-01 09:47:00,38.9,27.3,30.02,North,0,1.3,2.5,63,0.00,,,0.00,WUHU216HW,2013-01-01 14:47:00,
2013-01-01 09:52:00,39.1,27.1,30.03,NNE,23,1.6,2.7,62,0.00,,,0.00,WUHU216HW,2013-01-01 14:52:00,
2013-01-01 09:57:00,38.9,27.3,30.02,NNE,23,0.9,2.7,63,0.00,,,0.00,WUHU216HW,2013-01-01 14:57:00,
2013-01-01 10:02:00,39.2,27.6,30.03,NNE,23,0.0,2.7,63,0.00,,,0.00,WUHU216HW,2013-01-01 15:02:00,
2013-01-01 10:07:00,39.1,27.5,30.02,ESE,113,2.2,4.0,63,0.00,,,0.00,WUHU216HW,2013-01-01 15:07:00,
2013-01-01 10:12:00,38.5,26.9,30.03,SE,135,3.4,4.0,63,0.00,,,0.00,WUHU216HW,2013-01-01 15:12:00,
2013-01-01 10:17:00,38.3,26.8,30.02,SE,135,2.5,4.0,63,0.00,,,0.00,WUHU216HW,2013-01-01 15:17:00,
2013-01-01 10:22:00,38.3,26.8,30.04,ESE,113,1.1,4.0,63,0.00,,,0.00,WUHU216HW,2013-01-01 15:22:00,
2013-01-01 10:27:00,38.5,26.9,30.02,ESE,113,1.8,3.8,63,0.00,,,0.00,WUHU216HW,2013-01-01 15:27:00,
2013-01-01 10:32:00,38.5,26.9,30.03,ESE,113,1.1,2.9,63,0.00,,,0.00,WUHU216HW,2013-01-01 15:32:00,
2013-01-01 10:37:00,38.5,26.9,30.03,ESE,113,0.9,2.9,63,0.00,,,0.00,WUHU216HW,2013-01-01 15:37:00,
2013-01-01 10:42:00,38.7,27.1,30.04,ENE,68,0.4,1.8,63,0.00,,,0.00,WUHU216HW,2013-01-01 15:42:00,
2013-01-01 10:47:00,38.9,27.3,30.04,SE,135,0.4,1.8,63,0.00,,,0.00,WUHU216HW,2013-01-01 15:47:00,
2013-01-01 10:52:00,39.2,27.6,30.04,SE,135,0.9,1.3,63,0.00,,,0.00,WUHU216HW,2013-01-01 15:52:00,
2013-01-01 10:57:00,39.2,27.6,30.03,SE,135,0.4,2.5,63,0.00,,,0.00,WUHU216HW,2013-01-01 15:57:00,
2013-01-01 11:02:00,39.2,27.6,30.03,ESE,113,0.4,2.5,63,0.00,,,0.00,WUHU216HW,2013-01-01 16:02:00,
2013-01-01 11:07:00,39.2,27.2,30.03,SE,135,1.3,1.8,62,0.00,,,0.00,WUHU216HW,2013-01-01 16:07:00,
2013-01-01 11:12:00,39.4,27.4,30.03,ESE,113,0.0,2.9,62,0.00,,,0.00,WUHU216HW,2013-01-01 16:12:00,
2013-01-01 11:17:00,39.6,27.5,30.03,ESE,113,0.9,2.9,62,0.00,,,0.00,WUHU216HW,2013-01-01 16:17:00,
2013-01-01 11:22:00,39.6,27.5,30.03,SSE,158,0.4,1.6,62,0.00,,,0.00,WUHU216HW,2013-01-01 16:22:00,
2013-01-01 11:27:00,39.6,28.0,30.02,SSE,158,1.3,2.2,63,0.00,,,0.00,WUHU216HW,2013-01-01 16:27:00,
2013-01-01 11:32:00,39.4,27.8,30.02,ESE,113,0.2,2.5,63,0.00,,,0.00,WUHU216HW,2013-01-01 16:32:00,
2013-01-01 11:37:00,39.2,27.6,30.01,ESE,113,0.4,2.5,63,0.00,,,0.00,WUHU216HW,2013-01-01 16:37:00,
2013-01-01 11:42:00,39.2,27.6,30.01,East,90,1.6,2.0,63,0.00,,,0.00,WUHU216HW,2013-01-01 16:42:00,
2013-01-01 11:47:00,39.1,27.5,30.01,East,90,0.9,2.2,63,0.00,,,0.00,WUHU216HW,2013-01-01 16:47:00,
2013-01-01 11:52:00,39.2,27.6,30.00,ESE,113,0.9,2.2,63,0.00,,,0.00,WUHU216HW,2013-01-01 16:52:00,
2013-01-01 11:57:00,39.6,28.7,30.00,ENE,68,1.8,2.5,65,0.00,,,0.00,WUHU216HW,2013-01-01 16:57:00,
2013-01-01 12:02:00,39.6,28.0,29.99,ESE,113,1.6,2.7,63,0.00,,,0.00,WUHU216HW,2013-01-01 17:02:00,
2013-01-01 12:07:00,39.8,28.2,30.00,East,90,1.1,2.7,63,0.00,,,0.00,WUHU216HW,2013-01-01 17:07:00,
2013-01-01 12:12:00,40.0,28.4,30.00,ESE,113,1.1,1.8,63,0.00,,,0.00,WUHU216HW,2013-01-01 17:12:00,
2013-01-01 12:17:00,40.3,28.3,30.00,ESE,113,0.9,1.1,62,0.00,,,0.00,WUHU216HW,2013-01-01 17:17:00,
2013-01-01 12:22:00,40.1,28.1,29.99,ESE,113,1.1,1.6,62,0.00,,,0.00,WUHU216HW,2013-01-01 17:22:00,
2013-01-01 12:27:00,40.3,28.3,29.98,ESE,113,2.0,2.0,62,0.00,,,0.00,WUHU216HW,2013-01-01 17:27:00,
2013-01-01 12:32:00,40.3,28.3,29.98,ESE,113,1.3,2.2,62,0.00,,,0.00,WUHU216HW,2013-01-01 17:32:00,
2013-01-01 12:37:00,40.5,28.4,29.97,ESE,113,0.9,2.2,62,0.00,,,0.00,WUHU216HW,2013-01-01 17:37:00,
2013-01-01 12:42:00,40.5,28.4,29.98,ESE,113,0.4,2.2,62,0.00,,,0.00,WUHU216HW,2013-01-01 17:42:00,
2013-01-01 12:47:00,40.7,28.6,29.98,ENE,68,0.4,1.6,62,0.00,,,0.00,WUHU216HW,2013-01-01 17:47:00,
2013-01-01 12:52:00,40.7,28.6,29.97,SSE,158,0.0,1.1,62,0.00,,,0.00,WUHU216HW,2013-01-01 17:52:00,
2013-01-01 12:57:00,40.9,28.8,29.98,SSE,158,0.0,0.7,62,0.00,,,0.00,WUHU216HW,2013-01-01 17:57:00,
2013-01-01 13:02:00,41.0,29.0,29.96,SSE,158,0.0,0.2,62,0.00,,,0.00,WUHU216HW,2013-01-01 18:02:00,
2013-01-01 13:07:00,41.2,29.2,29.97,SSE,158,0.0,0.2,62,0.00,,,0.00,WUHU216HW,2013-01-01 18:07:00,
2013-01-01 13:12:00,41.2,29.2,29.96,SSE,158,0.0,0.0,62,0.00,,,0.00,WUHU216HW,2013-01-01 18:12:00,
2013-01-01 13:17:00,40.9,28.4,29.96,ESE,113,1.1,1.3,61,0.00,,,0.00,WUHU216HW,2013-01-01 18:17:00,
2013-01-01 13:22:00,40.7,28.6,29.96,ESE,113,0.2,1.3,62,0.00,,,0.00,WUHU216HW,2013-01-01 18:22:00,
2013-01-01 13:27:00,40.7,28.6,29.96,East,90,0.7,1.3,62,0.00,,,0.00,WUHU216HW,2013-01-01 18:27:00,
2013-01-01 13:32:00,40.7,29.1,29.96,ESE,113,0.4,0.7,63,0.00,,,0.00,WUHU216HW,2013-01-01 18:32:00,
2013-01-01 13:37:00,40.5,28.9,29.96,East,90,0.0,1.1,63,0.00,,,0.00,WUHU216HW,2013-01-01 18:37:00,
2013-01-01 13:42:00,40.5,28.9,29.96,East,90,0.0,1.1,63,0.00,,,0.00,WUHU216HW,2013-01-01 18:42:00,
2013-01-01 13:47:00,40.7,28.6,29.97,East,90,0.0,0.0,62,0.00,,,0.00,WUHU216HW,2013-01-01 18:47:00,
2013-01-01 13:52:00,40.7,28.6,29.97,East,90,0.0,0.2,62,0.00,,,0.00,WUHU216HW,2013-01-01 18:52:00,
2013-01-01 13:57:00,40.7,28.6,29.98,East,90,0.0,0.2,62,0.00,,,0.00,WUHU216HW,2013-01-01 18:57:00,
2013-01-01 14:02:00,40.7,28.6,29.97,East,90,0.0,0.0,62,0.00,,,0.00,WUHU216HW,2013-01-01 19:02:00,
2013-01-01 14:07:00,40.7,28.6,29.97,East,90,0.0,0.0,62,0.00,,,0.00,WUHU216HW,2013-01-01 19:07:00,
2013-01-01 14:12:00,40.7,29.1,29.97,East,90,0.0,0.0,63,0.00,,,0.00,WUHU216HW,2013-01-01 19:12:00,
2013-01-01 14:17:00,40.7,29.1,29.97,ESE,113,0.0,0.7,63,0.00,,,0.00,WUHU216HW,2013-01-01 19:17:00,
2013-01-01 14:22:00,40.7,29.1,29.97,ESE,113,0.0,0.7,63,0.00,,,0.00,WUHU216HW,2013-01-01 19:22:00,
2013-01-01 14:27:00,40.7,29.1,29.96,ESE,113,0.0,0.4,63,0.00,,,0.00,WUHU216HW,2013-01-01 19:27:00,
2013-01-01 14:32:00,40.7,29.1,29.97,SW,225,0.4,0.4,63,0.00,,,0.00,WUHU216HW,2013-01-01 19:32:00,
2013-01-01 14:37:00,40.9,29.3,29.97,WSW,248,0.4,0.4,63,0.00,,,0.00,WUHU216HW,2013-01-01 19:37:00,
2013-01-01 14:42:00,41.0,29.4,29.97,SE,135,0.0,0.4,63,0.00,,,0.00,WUHU216HW,2013-01-01 19:42:00,
2013-01-01 14:47:00,40.9,29.3,29.97,SE,135,0.0,0.4,63,0.00,,,0.00,WUHU216HW,2013-01-01 19:47:00,
2013-01-01 14:52:00,40.9,29.3,29.97,SE,135,0.0,0.4,63,0.00,,,0.00,WUHU216HW,2013-01-01 19:52:00,
2013-01-01 14:57:00,41.0,29.4,29.98,SE,135,0.0,0.2,63,0.00,,,0.00,WUHU216HW,2013-01-01 19:57:00,
2013-01-01 15:02:00,41.2,29.5,29.98,SSE,158,0.4,0.4,63,0.00,,,0.00,WUHU216HW,2013-01-01 20:02:00,
2013-01-01 15:07:00,41.4,29.3,29.98,SE,135,0.7,0.7,62,0.00,,,0.00,WUHU216HW,2013-01-01 20:07:00,
2013-01-01 15:12:00,41.4,29.7,29.98,South,180,0.2,0.7,63,0.00,,,0.00,WUHU216HW,2013-01-01 20:12:00,
2013-01-01 15:17:00,41.2,29.5,29.98,SE,135,0.7,0.7,63,0.00,,,0.00,WUHU216HW,2013-01-01 20:17:00,
2013-01-01 15:22:00,41.0,29.4,29.97,SE,135,0.7,0.7,63,0.00,,,0.00,WUHU216HW,2013-01-01 20:22:00,
2013-01-01 15:27:00,40.9,29.3,29.97,ESE,113,0.2,1.1,63,0.00,,,0.00,WUHU216HW,2013-01-01 20:27:00,
2013-01-01 15:32:00,40.7,29.1,29.97,ESE,113,0.2,1.1,63,0.00,,,0.00,WUHU216HW,2013-01-01 20:32:00,
2013-01-01 15:37:00,40.7,29.1,29.97,ESE,113,0.0,0.4,63,0.00,,,0.00,WUHU216HW,2013-01-01 20:37:00,
2013-01-01 15:42:00,40.7,29.4,29.97,ESE,113,0.0,0.2,64,0.00,,,0.00,WUHU216HW,2013-01-01 20:42:00,
2013-01-01 15:47:00,40.5,29.6,29.98,ESE,113,0.2,0.4,65,0.00,,,0.00,WUHU216HW,2013-01-01 20:47:00,
2013-01-01 15:52:00,40.3,29.4,29.98,ESE,113,0.4,0.4,65,0.00,,,0.00,WUHU216HW,2013-01-01 20:52:00,
2013-01-01 15:57:00,40.3,29.4,29.98,WSW,248,0.2,0.7,65,0.00,,,0.00,WUHU216HW,2013-01-01 20:57:00,
2013-01-01 16:02:00,40.0,29.4,29.98,WSW,248,0.0,0.7,66,0.00,,,0.00,WUHU216HW,2013-01-01 21:02:00,
2013-01-01 16:07:00,40.0,29.4,29.99,SSW,203,0.0,0.4,66,0.00,,,0.00,WUHU216HW,2013-01-01 21:07:00,
2013-01-01 16:12:00,40.0,29.1,30.00,South,180,0.0,0.4,65,0.00,,,0.00,WUHU216HW,2013-01-01 21:12:00,
2013-01-01 16:17:00,40.0,28.7,30.00,WSW,248,0.0,0.4,64,0.00,,,0.00,WUHU216HW,2013-01-01 21:17:00,
2013-01-01 16:22:00,39.4,28.9,29.99,NE,45,0.0,0.4,66,0.00,,,0.00,WUHU216HW,2013-01-01 21:22:00,
2013-01-01 16:27:00,39.2,28.7,29.99,NNW,338,0.0,0.4,66,0.00,,,0.00,WUHU216HW,2013-01-01 21:27:00,
2013-01-01 16:32:00,39.1,29.0,29.99,NNE,23,0.0,0.2,67,0.00,,,0.00,WUHU216HW,2013-01-01 21:32:00,
2013-01-01 16:37:00,38.9,29.2,29.99,NNE,23,0.0,0.2,68,0.00,,,0.00,WUHU216HW,2013-01-01 21:37:00,
2013-01-01 16:42:00,38.7,29.3,30.00,West,270,0.0,0.4,69,0.00,,,0.00,WUHU216HW,2013-01-01 21:42:00,
2013-01-01 16:47:00,38.3,29.1,29.99,NE,45,0.0,0.4,69,0.00,,,0.00,WUHU216HW,2013-01-01 21:47:00,
2013-01-01 16:52:00,38.0,29.1,29.99,North,0,0.2,0.4,70,0.00,,,0.00,WUHU216HW,2013-01-01 21:52:00,
2013-01-01 16:57:00,37.8,29.0,30.00,NNE,23,0.0,0.4,70,0.00,,,0.00,WUHU216HW,2013-01-01 21:57:00,
2013-01-01 17:02:00,37.8,29.0,30.00,NW,315,0.2,0.9,70,0.00,,,0.00,WUHU216HW,2013-01-01 22:02:00,
2013-01-01 17:07:00,38.3,29.1,30.00,SW,225,0.0,1.1,69,0.00,,,0.00,WUHU216HW,2013-01-01 22:07:00,
2013-01-01 17:12:00,38.5,28.8,30.01,WSW,248,0.0,1.1,68,0.00,,,0.00,WUHU216HW,2013-01-01 22:12:00,
2013-01-01 17:17:00,38.9,28.8,30.00,WNW,293,0.0,1.1,67,0.00,,,0.00,WUHU216HW,2013-01-01 22:17:00,
2013-01-01 17:22:00,39.1,29.0,30.00,ESE,113,0.4,0.9,67,0.00,,,0.00,WUHU216HW,2013-01-01 22:22:00,
2013-01-01 17:27:00,38.9,28.8,30.01,ENE,68,0.2,0.9,67,0.00,,,0.00,WUHU216HW,2013-01-01 22:27:00,
2013-01-01 17:32:00,38.7,28.6,30.01,WNW,293,0.4,1.8,67,0.00,,,0.00,WUHU216HW,2013-01-01 22:32:00,
2013-01-01 17:37:00,39.1,28.5,30.02,West,270,1.8,2.2,66,0.00,,,0.00,WUHU216HW,2013-01-01 22:37:00,
2013-01-01 17:42:00,39.2,28.7,30.02,North,0,0.2,3.1,66,0.00,,,0.00,WUHU216HW,2013-01-01 22:42:00,
2013-01-01 17:47:00,39.2,28.7,30.02,NNW,338,1.1,3.1,66,0.00,,,0.00,WUHU216HW,2013-01-01 22:47:00,
2013-01-01 17:52:00,39.2,28.4,30.02,NNW,338,0.9,2.7,65,0.00,,,0.00,WUHU216HW,2013-01-01 22:52:00,
2013-01-01 17:57:00,39.2,28.4,30.02,NNE,23,1.1,2.7,65,0.00,,,0.00,WUHU216HW,2013-01-01 22:57:00,
2013-01-01 18:02:00,39.2,28.4,30.03,ENE,68,0.4,2.7,65,0.00,,,0.00,WUHU216HW,2013-01-01 23:02:00,
2013-01-01 18:07:00,39.1,28.5,30.02,NNE,23,1.8,2.2,66,0.00,,,0.00,WUHU216HW,2013-01-01 23:07:00,
2013-01-01 18:12:00,39.2,28.4,30.02,North,0,1.1,3.8,65,0.00,,,0.00,WUHU216HW,2013-01-01 23:12:00,
2013-01-01 18:17:00,39.1,28.5,30.03,NNE,23,1.8,3.8,66,0.00,,,0.00,WUHU216HW,2013-01-01 23:17:00,
2013-01-01 18:22:00,39.1,28.2,30.02,West,270,2.9,2.9,65,0.00,,,0.00,WUHU216HW,2013-01-01 23:22:00,
2013-01-01 18:27:00,39.1,28.5,30.02,East,90,0.0,2.9,66,0.00,,,0.00,WUHU216HW,2013-01-01 23:27:00,
2013-01-01 18:32:00,38.9,28.5,30.03,North,0,0.7,2.9,66,0.00,,,0.00,WUHU216HW,2013-01-01 23:32:00,
2013-01-01 18:37:00,38.9,28.5,30.03,NNE,23,0.4,2.0,66,0.00,,,0.00,WUHU216HW,2013-01-01 23:37:00,
2013-01-01 18:42:00,38.9,28.5,30.03,West,270,0.9,2.0,66,0.00,,,0.00,WUHU216HW,2013-01-01 23:42:00,
2013-01-01 18:47:00,38.9,28.5,30.03,North,0,0.0,3.1,66,0.00,,,0.00,WUHU216HW,2013-01-01 23:47:00,
2013-01-01 18:52:00,38.9,28.5,30.03,NE,45,0.4,3.1,66,0.00,,,0.00,WUHU216HW,2013-01-01 23:52:00,
2013-01-01 18:57:00,38.7,28.3,30.03,West,270,0.0,1.3,66,0.00,,,0.00,WUHU216HW,2013-01-01 23:57:00,
2013-01-01 19:02:00,38.5,28.4,30.04,WNW,293,0.4,1.3,67,0.00,,,0.00,WUHU216HW,2013-01-02 00:02:00,
2013-01-01 19:07:00,38.5,28.4,30.04,West,270,5.4,5.4,67,0.00,,,0.00,WUHU216HW,2013-01-02 00:07:00,
2013-01-01 19:12:00,38.5,28.4,30.04,NW,315,2.9,5.4,67,0.00,,,0.00,WUHU216HW,2013-01-02 00:12:00,
2013-01-01 19:17:00,38.5,28.4,30.04,West,270,0.9,5.4,67,0.00,,,0.00,WUHU216HW,2013-01-02 00:17:00,
2013-01-01 19:22:00,38.5,28.4,30.04,NW,315,0.0,3.8,67,0.00,,,0.00,WUHU216HW,2013-01-02 00:22:00,
2013-01-01 19:27:00,38.3,28.3,30.04,NNE,23,0.4,2.2,67,0.00,,,0.00,WUHU216HW,2013-01-02 00:27:00,
2013-01-01 19:32:00,38.2,28.2,30.03,North,0,1.1,2.7,67,0.00,,,0.00,WUHU216HW,2013-01-02 00:32:00,
2013-01-01 19:37:00,38.2,28.5,30.03,SW,225,0.4,2.7,68,0.00,,,0.00,WUHU216HW,2013-01-02 00:37:00,
2013-01-01 19:42:00,38.2,28.5,30.03,NNE,23,0.7,2.5,68,0.00,,,0.00,WUHU216HW,2013-01-02 00:42:00,
2013-01-01 19:47:00,38.0,28.7,30.02,North,0,1.1,2.5,69,0.00,,,0.00,WUHU216HW,2013-01-02 00:47:00,
2013-01-01 19:52:00,37.8,28.5,30.02,NE,45,1.1,2.2,69,0.00,,,0.00,WUHU216HW,2013-01-02 00:52:00,
2013-01-01 19:57:00,37.8,28.5,30.03,North,0,0.4,2.0,69,0.00,,,0.00,WUHU216HW,2013-01-02 00:57:00,
2013-01-01 20:02:00,37.8,28.5,30.03,West,270,0.0,1.3,69,0.00,,,0.00,WUHU216HW,2013-01-02 01:02:00,
2013-01-01 20:07:00,37.8,28.5,30.03,NW,315,0.2,2.9,69,0.00,,,0.00,WUHU216HW,2013-01-02 01:07:00,
2013-01-01 20:12:00,37.6,28.5,30.04,SE,135,1.1,3.1,69,0.00,,,0.00,WUHU216HW,2013-01-02 01:12:00,
2013-01-01 20:17:00,37.6,28.5,30.04,ESE,113,1.8,3.1,69,0.00,,,0.00,WUHU216HW,2013-01-02 01:17:00,
2013-01-01 20:22:00,37.4,28.6,30.04,ESE,113,1.8,2.5,70,0.00,,,0.00,WUHU216HW,2013-01-02 01:22:00,
2013-01-01 20:27:00,37.4,29.0,30.03,ESE,113,1.8,2.5,71,0.00,,,0.00,WUHU216HW,2013-01-02 01:27:00,
2013-01-01 20:32:00,37.6,28.8,30.03,North,0,2.5,2.5,70,0.00,,,0.00,WUHU216HW,2013-01-02 01:32:00,
2013-01-01 20:37:00,37.6,29.1,30.04,NE,45,2.7,2.7,71,0.00,,,0.00,WUHU216HW,2013-01-02 01:37:00,
2013-01-01 20:42:00,37.4,28.6,30.04,SW,225,0.4,2.7,70,0.00,,,0.00,WUHU216HW,2013-01-02 01:42:00,
2013-01-01 20:47:00,37.4,28.6,30.05,North,0,0.7,2.2,70,0.00,,,0.00,WUHU216HW,2013-01-02 01:47:00,
2013-01-01 20:52:00,37.4,29.0,30.04,NNE,23,1.3,3.4,71,0.00,,,0.00,WUHU216HW,2013-01-02 01:52:00,
2013-01-01 20:57:00,37.3,28.8,30.04,North,0,0.7,3.4,71,0.00,,,0.00,WUHU216HW,2013-01-02 01:57:00,
2013-01-01 21:02:00,37.1,28.9,30.05,NNE,23,2.2,3.4,72,0.00,,,0.00,WUHU216HW,2013-01-02 02:02:00,
2013-01-01 21:07:00,36.7,29.2,30.04,NNE,23,1.8,3.4,74,0.00,,,0.00,WUHU216HW,2013-01-02 02:07:00,
2013-01-01 21:12:00,36.5,29.0,30.04,NE,45,1.1,2.9,74,0.00,,,0.00,WUHU216HW,2013-01-02 02:12:00,
2013-01-01 21:17:00,36.4,28.8,30.05,NNE,23,1.8,2.5,74,0.00,,,0.00,WUHU216HW,2013-01-02 02:17:00,
2013-01-01 21:22:00,36.2,28.6,30.04,NE,45,1.3,3.1,74,0.00,,,0.00,WUHU216HW,2013-01-02 02:22:00,
2013-01-01 21:27:00,36.4,28.8,30.06,NNE,23,2.2,3.1,74,0.00,,,0.00,WUHU216HW,2013-01-02 02:27:00,
2013-01-01 21:32:00,36.4,29.2,30.05,NE,45,1.8,2.7,75,0.00,,,0.00,WUHU216HW,2013-01-02 02:32:00,
2013-01-01 21:37:00,36.2,28.6,30.06,NNE,23,1.1,2.7,74,0.00,,,0.00,WUHU216HW,2013-01-02 02:37:00,
2013-01-01 21:42:00,36.4,28.8,30.06,NNE,23,1.1,2.2,74,0.00,,,0.00,WUHU216HW,2013-01-02 02:42:00,
2013-01-01 21:47:00,36.2,28.6,30.06,NNE,23,1.1,1.8,74,0.00,,,0.00,WUHU216HW,2013-01-02 02:47:00,
2013-01-01 21:52:00,36.4,28.5,30.05,ENE,68,0.0,1.8,73,0.00,,,0.00,WUHU216HW,2013-01-02 02:52:00,
2013-01-01 21:57:00,36.4,28.5,30.05,North,0,2.0,2.7,73,0.00,,,0.00,WUHU216HW,2013-01-02 02:57:00,
2013-01-01 22:02:00,36.4,28.5,30.05,NNE,23,1.8,2.7,73,0.00,,,0.00,WUHU216HW,2013-01-02 03:02:00,
2013-01-01 22:07:00,36.5,28.7,30.05,North,0,2.5,2.5,73,0.00,,,0.00,WUHU216HW,2013-01-02 03:07:00,
2013-01-01 22:12:00,36.5,28.7,30.05,NNE,23,1.6,3.4,73,0.00,,,0.00,WUHU216HW,2013-01-02 03:12:00,
2013-01-01 22:17:00,36.5,28.7,30.06,ENE,68,1.8,3.4,73,0.00,,,0.00,WUHU216HW,2013-01-02 03:17:00,
2013-01-01 22:22:00,36.4,28.5,30.06,North,0,2.0,4.7,73,0.00,,,0.00,WUHU216HW,2013-01-02 03:22:00,
2013-01-01 22:27:00,36.4,28.5,30.06,North,0,1.8,4.7,73,0.00,,,0.00,WUHU216HW,2013-01-02 03:27:00,
2013-01-01 22:32:00,36.4,28.5,30.06,North,0,2.5,2.9,73,0.00,,,0.00,WUHU216HW,2013-01-02 03:32:00,
2013-01-01 22:37:00,36.4,28.5,30.05,NNE,23,1.8,3.6,73,0.00,,,0.00,WUHU216HW,2013-01-02 03:37:00,
2013-01-01 22:42:00,36.4,28.5,30.05,NNE,23,1.3,4.0,73,0.00,,,0.00,WUHU216HW,2013-01-02 03:42:00,
2013-01-01 22:47:00,36.4,28.5,30.04,North,0,1.8,4.0,73,0.00,,,0.00,WUHU216HW,2013-01-02 03:47:00,
2013-01-01 22:52:00,36.4,28.5,30.04,North,0,1.1,3.4,73,0.00,,,0.00,WUHU216HW,2013-01-02 03:52:00,
2013-01-01 22:57:00,36.4,28.5,30.04,NE,45,0.4,3.6,73,0.00,,,0.00,WUHU216HW,2013-01-02 03:57:00,
2013-01-01 23:02:00,36.4,28.5,30.05,NNW,338,0.7,3.6,73,0.00,,,0.00,WUHU216HW,2013-01-02 04:02:00,
2013-01-01 23:07:00,36.4,28.5,30.05,North,0,2.2,3.4,73,0.00,,,0.00,WUHU216HW,2013-01-02 04:07:00,
2013-01-01 23:12:00,36.2,28.4,30.06,North,0,0.2,3.6,73,0.00,,,0.00,WUHU216HW,2013-01-02 04:12:00,
2013-01-01 23:17:00,36.0,28.4,30.06,NE,45,1.8,3.6,74,0.00,,,0.00,WUHU216HW,2013-01-02 04:17:00,
2013-01-01 23:22:00,35.6,28.4,30.06,ENE,68,2.2,2.5,75,0.00,,,0.00,WUHU216HW,2013-01-02 04:22:00,
2013-01-01 23:27:00,35.5,28.6,30.05,ENE,68,1.8,2.5,76,0.00,,,0.00,WUHU216HW,2013-01-02 04:27:00,
2013-01-01 23:32:00,35.1,28.5,30.04,ENE,68,2.5,2.5,77,0.00,,,0.00,WUHU216HW,2013-01-02 04:32:00,
2013-01-01 23:37:00,34.9,28.1,30.05,ENE,68,2.2,2.7,76,0.00,,,0.00,WUHU216HW,2013-01-02 04:37:00,
2013-01-01 23:42:00,35.1,28.3,30.05,ENE,68,2.9,2.9,76,0.00,,,0.00,WUHU216HW,2013-01-02 04:42:00,
2013-01-01 23:47:00,35.1,28.5,30.04,ENE,68,1.3,3.6,77,0.00,,,0.00,WUHU216HW,2013-01-02 04:47:00,
2013-01-01 23:52:00,35.1,28.3,30.06,East,90,1.3,3.6,76,0.00,,,0.00,WUHU216HW,2013-01-02 04:52:00,
2013-01-01 23:57:00,35.1,28.3,30.05,ENE,68,1.8,3.4,76,0.00,,,0.00,WUHU216HW,2013-01-02 04:57:00,